Change the Weather History Date:

Sunday, March 31, 2013

  Actual Average Record
Temperature  
Mean Temperature 35 °F -  
Max Temperature 42 °F 44 °F 62 °F (2006)
Min Temperature 28 °F 27 °F 17 °F (2003)
Degree Days  
Heating Degree Days 30    
Moisture  
Dew Point 34 °F    
Average Humidity 93    
Maximum Humidity 100    
Minimum Humidity 70    
Precipitation  
Precipitation 0.00 in - - ()
Sea Level Pressure  
Sea Level Pressure 29.67 in    
Wind  
Wind Speed 11 mph (WSW)    
Max Wind Speed 26 mph    
Max Gust Speed 37 mph    
Visibility 4 miles    
Events Fog , Rain    
Averages and records for this station are not official NWS values.
T = Trace of Precipitation, MM = Missing Value Source: NWS Daily Summary

Daily Weather History Graph

Daily Weather History Graph

Search for Another Location

Airport or City:

Trip Planner

Search our weather history database for the weather conditions in past years. The results will help you decide how hot, cold, wet, or windy it might be!

Date:

Astronomy

Mar. 31, 2013 Rise Set
Actual Time 7:22 AM EDT 8:08 PM EDT
Civil Twilight 6:53 AM EDT 8:38 PM EDT
Nautical Twilight 6:17 AM EDT 9:13 PM EDT
Astronomical Twilight 5:40 AM EDT 9:50 PM EDT
Moon 12:24 AM EDT (3/31) 9:57 AM EDT (3/31)
Length of Visible Light 13h 44m
Length of Day
12h 45m
Waning Gibbous, 78% of the Moon is Illuminated
Mar 31
Waning Gibbous
Apr 3
Last Quarter
Apr 10
New
Apr 18
First Quarter
Apr 25
Full

Hourly Weather History & Observations

Time (EDT) Temp. Windchill Dew Point Humidity Pressure Visibility Wind Dir Wind Speed Gust Speed Precip Events Conditions
12:14 AM 40.8 °F 35.6 °F 39.7 °F 96% 29.80 in 5.0 mi South 8.1 mph 16.1 mph N/A Rain Light Rain
12:34 AM 40.8 °F 36.2 °F 39.9 °F 97% 29.79 in 5.0 mi SSW 6.9 mph - N/A Rain Rain
12:54 AM 41.0 °F 35.2 °F 40.3 °F 97% 29.78 in 5.0 mi South 9.2 mph - N/A   Drizzle
1:14 AM 41.0 °F 34.7 °F 40.5 °F 98% 29.77 in 5.0 mi South 10.4 mph 17.3 mph N/A   Drizzle
1:35 AM 41.2 °F 35.0 °F 40.6 °F 98% 29.76 in 5.0 mi South 10.4 mph 18.4 mph N/A   Drizzle
1:54 AM 41.0 °F 34.7 °F 40.5 °F 98% 29.75 in 4.0 mi SSW 10.4 mph 16.1 mph N/A Rain Light Rain
2:15 AM 41.4 °F 35.2 °F 41.0 °F 99% 29.74 in 4.0 mi SSW 10.4 mph 16.1 mph N/A Rain Light Rain
2:34 AM 41.4 °F 36.2 °F 41.0 °F 99% 29.73 in 3.0 mi SSW 8.1 mph - N/A   Light Drizzle
2:54 AM 41.0 °F 35.2 °F 41.0 °F 100% 29.72 in 2.0 mi SSW 9.2 mph - N/A   Drizzle
3:15 AM 41.2 °F 36.6 °F 41.2 °F 100% 29.72 in 2.0 mi SW 6.9 mph - N/A   Light Drizzle
3:34 AM 40.8 °F 35.0 °F 40.8 °F 100% 29.71 in 2.0 mi WSW 9.2 mph - N/A   Overcast
3:54 AM 40.1 °F 32.7 °F 40.1 °F 100% 29.70 in 2.0 mi WSW 12.7 mph - N/A   Overcast
4:14 AM 39.2 °F 32.5 °F 39.2 °F 100% 29.70 in 0.5 mi WSW 10.4 mph - N/A Fog Fog
4:34 AM 38.3 °F 32.5 °F 38.3 °F 100% 29.69 in 0.5 mi WSW 8.1 mph - N/A Fog Fog
4:55 AM 38.1 °F 32.9 °F 38.1 °F 100% 29.69 in 0.5 mi WSW 6.9 mph - N/A Fog Fog
5:14 AM 37.8 °F 31.3 °F 37.8 °F 100% 29.68 in 0.5 mi WSW 9.2 mph - N/A Fog Fog
5:34 AM 37.4 °F 30.8 °F 37.4 °F 100% 29.68 in 0.5 mi West 9.2 mph - N/A Fog Fog
5:54 AM 37.0 °F 30.4 °F 37.0 °F 100% 29.67 in 0.5 mi West 9.2 mph - N/A Fog Fog
6:14 AM 36.5 °F 29.2 °F 36.5 °F 100% 29.67 in 0.2 mi West 10.4 mph - N/A Fog Fog
6:35 AM 35.6 °F 29.2 °F 35.6 °F 100% 29.67 in 0.2 mi West 8.1 mph - N/A Fog Fog
6:54 AM 34.7 °F 28.1 °F 34.7 °F 100% 29.67 in 0.2 mi West 8.1 mph - N/A Fog Fog
7:14 AM 34.2 °F 28.2 °F 34.2 °F 100% 29.67 in 0.5 mi WSW 6.9 mph - N/A Fog Fog
7:34 AM 34.0 °F 28.0 °F 34.0 °F 100% 29.67 in 0.2 mi WSW 6.9 mph - N/A Fog Fog
7:54 AM 33.8 °F 27.0 °F 33.8 °F 100% 29.67 in 0.2 mi West 8.1 mph - N/A Fog Fog
8:14 AM 33.8 °F 27.0 °F 33.8 °F 100% 29.67 in 0.2 mi WSW 8.1 mph - N/A Fog Fog
8:34 AM 33.8 °F 27.7 °F 33.8 °F 100% 29.67 in 0.2 mi WSW 6.9 mph - N/A Fog Fog
8:55 AM 34.2 °F 30.0 °F 34.2 °F 100% 29.66 in 0.2 mi SSW 4.6 mph - N/A Fog Fog
9:14 AM 34.7 °F 31.8 °F 34.7 °F 100% 29.66 in 0.2 mi SW 3.5 mph - N/A Fog Fog
9:34 AM 35.1 °F 31.0 °F 35.1 °F 100% 29.64 in 0.2 mi SSW 4.6 mph - N/A Fog Fog
9:55 AM 35.6 °F 31.7 °F 35.6 °F 100% 29.63 in 0.2 mi SSW 4.6 mph - N/A Fog Fog
10:14 AM 36.1 °F 30.6 °F 36.1 °F 100% 29.63 in 0.5 mi SW 6.9 mph - N/A Fog Fog
10:34 AM 36.5 °F 31.0 °F 36.5 °F 100% 29.63 in 1.5 mi SW 6.9 mph - N/A   Overcast
10:55 AM 36.7 °F 29.4 °F 36.7 °F 100% 29.62 in 2.0 mi SW 10.4 mph 17.3 mph N/A   Overcast
11:14 AM 37.0 °F 29.8 °F 37.0 °F 100% 29.62 in 2.5 mi SW 10.4 mph - N/A   Overcast
11:35 AM 37.0 °F 30.4 °F 37.0 °F 100% 29.62 in 2.0 mi WSW 9.2 mph - N/A   Overcast
11:55 AM 36.7 °F 28.0 °F 36.7 °F 100% 29.63 in 0.8 mi WSW 13.8 mph 20.7 mph N/A   Overcast
12:14 PM 35.8 °F 27.3 °F 35.8 °F 100% 29.62 in 0.5 mi SW 12.7 mph 23.0 mph N/A Fog Fog
12:35 PM 35.8 °F 26.9 °F 35.8 °F 100% 29.62 in 1.0 mi SW 13.8 mph - N/A   Overcast
12:55 PM 36.1 °F 26.9 °F 36.1 °F 100% 29.62 in 1.8 mi WSW 15.0 mph 21.9 mph N/A   Overcast
1:14 PM 36.0 °F 26.3 °F 36.0 °F 100% 29.62 in 3.0 mi WSW 16.1 mph 20.7 mph N/A   Overcast
1:35 PM 36.3 °F 26.8 °F 36.3 °F 100% 29.61 in 4.0 mi SW 16.1 mph 21.9 mph N/A   Overcast
1:54 PM 37.0 °F 28.9 °F 36.5 °F 98% 29.61 in 5.0 mi SW 12.7 mph 20.7 mph N/A   Overcast
2:14 PM 38.3 °F 29.7 °F 36.7 °F 94% 29.61 in 5.0 mi SW 15.0 mph 18.4 mph N/A   Overcast
2:35 PM 38.3 °F 30.5 °F 36.1 °F 92% 29.61 in 5.0 mi SW 12.7 mph 19.6 mph N/A   Overcast
2:54 PM 39.0 °F 31.8 °F 36.3 °F 90% 29.61 in 5.0 mi SSW 11.5 mph 19.6 mph N/A   Overcast
3:15 PM 39.6 °F 31.3 °F 35.8 °F 86% 29.60 in 5.0 mi SSW 15.0 mph 19.6 mph N/A   Overcast
3:34 PM 41.0 °F 34.3 °F 35.8 °F 82% 29.61 in 5.0 mi SW 11.5 mph 16.1 mph N/A   Haze
3:54 PM 41.9 °F 34.3 °F 35.6 °F 78% 29.60 in 7.0 mi SW 15.0 mph 19.6 mph N/A   Overcast
4:15 PM 42.1 °F 34.2 °F 35.6 °F 78% 29.60 in 7.0 mi SW 16.1 mph 21.9 mph N/A   Overcast
4:34 PM 41.0 °F 32.5 °F 34.9 °F 79% 29.60 in 7.0 mi WSW 17.3 mph 21.9 mph N/A   Overcast
4:54 PM 39.2 °F 31.6 °F 34.3 °F 83% 29.60 in 7.0 mi WSW 12.7 mph 23.0 mph N/A Rain Light Rain
5:14 PM 38.3 °F 28.7 °F 34.7 °F 87% 29.60 in 4.0 mi WSW 18.4 mph 28.8 mph N/A Rain Light Rain
5:34 PM 37.0 °F 27.7 °F 35.8 °F 95% 29.61 in 3.0 mi West 16.1 mph 24.2 mph N/A Rain Light Rain
5:55 PM 35.6 °F 27.1 °F 35.1 °F 98% 29.62 in 5.0 mi West 12.7 mph - N/A Rain Light Rain
6:14 PM 35.6 °F 27.5 °F 35.2 °F 99% 29.62 in 7.0 mi West 11.5 mph - N/A Rain Light Rain
6:34 PM 36.0 °F 26.3 °F 34.2 °F 93% 29.62 in 10.0 mi West 16.1 mph - N/A   Overcast
6:55 PM 36.5 °F 27.4 °F 32.7 °F 86% 29.63 in 10.0 mi West 15.0 mph - N/A   Overcast
7:14 PM 35.8 °F 26.9 °F 32.9 °F 89% 29.63 in 10.0 mi West 13.8 mph 20.7 mph N/A   Overcast
7:34 PM 35.8 °F 26.5 °F 32.0 °F 86% 29.64 in 10.0 mi West 15.0 mph - N/A   Overcast
8:14 PM 32.0 °F 20.5 °F 27.5 °F 83% 29.69 in 10.0 mi NW 18.4 mph 27.6 mph N/A   Overcast
8:35 PM 32.0 °F 20.1 °F 27.1 °F 82% 29.70 in 10.0 mi NW 19.6 mph 28.8 mph N/A   Overcast
8:54 PM 31.1 °F 18.3 °F 23.9 °F 75% 29.72 in 10.0 mi NW 21.9 mph 32.2 mph N/A   Overcast
9:14 PM 30.7 °F 18.5 °F 23.5 °F 75% 29.72 in 10.0 mi NW 19.6 mph 31.1 mph N/A   Overcast
9:34 PM 29.8 °F 15.7 °F 22.8 °F 75% 29.73 in 10.0 mi NW 25.3 mph 36.8 mph N/A   Overcast
9:54 PM 29.8 °F 15.5 °F 21.2 °F 70% 29.74 in 10.0 mi NW 26.5 mph 32.2 mph N/A   Scattered Clouds
10:14 PM 29.8 °F 16.3 °F 22.3 °F 73% 29.75 in 10.0 mi NW 23.0 mph 31.1 mph N/A   Mostly Cloudy
10:34 PM 29.1 °F 15.4 °F 20.8 °F 71% 29.77 in 10.0 mi WNW 23.0 mph 31.1 mph N/A   Overcast
10:55 PM 28.9 °F 16.1 °F 21.4 °F 73% 29.77 in 10.0 mi WNW 19.6 mph 34.5 mph N/A   Mostly Cloudy
11:14 PM 28.8 °F 15.9 °F 21.0 °F 73% 29.77 in 10.0 mi WNW 19.6 mph 31.1 mph N/A   Mostly Cloudy
11:35 PM 28.2 °F 14.2 °F 20.7 °F 73% 29.77 in 10.0 mi WNW 23.0 mph 32.2 mph N/A   Mostly Cloudy
11:54 PM 28.2 °F 14.8 °F 21.0 °F 74% 29.77 in 10.0 mi WNW 20.7 mph 31.1 mph N/A   Mostly Cloudy